Home   Weather   Aylesbury   Past weeks

Flag for United Kingdom Past Weather in Aylesbury, England, United Kingdom — Yesterday and Last 2 Weeks

Now
49 °F

Cool.


Feels Like: 48 °F
Forecast: 54 / 67 °F
Wind: 3 mph from South

Location: High Wicombe Hqstc

Current Time: Sep 26, 2016 at 3:07:08 AM

Latest Report: Sep 26, 2016 at 2:00 AM


Visibility: 11 mi

Pressure: 30.18 "Hg

Humidity: 91%

Dew Point: 46 °F

Location of AylesburyLocation

Past Weather in Aylesbury — Graph

°F

Aylesbury Temperature Yesterday

Maximum temperature yesterday: 62 °F (at 12:00 AM)
Minimum temperature yesterday: 51 °F (at 11:00 PM)
Average temperature yesterday: 58 °F

High & Low Weather Summary for the Past Weeks

 TemperatureHumidityPressure
High83 °F (Sep 13, 1:00 PM)100% (Sep 11, 8:00 AM)30.28 "Hg (Sep 11, 8:00 AM)
Low46 °F (Sep 11, 7:00 AM)53% (Sep 13, 1:00 PM)29.77 "Hg (Sep 13, 4:00 PM)
Average60 °F83%30.02 "Hg
* Reported Sep 11 1:00 AM — Sep 26 1:00 AM, Aylesbury, Weather by CustomWeather, © 2016

Note: Actual official high and low records may vary slightly from our data, if they occured in-between our weather recording intervals... More about our weather records

Advertising

Aylesbury Weather History for the Previous 24 Hours

Scroll right to see more
 ConditionsComfort  
Time TempWeatherWind HumidityBarometerVisibility
1:00 AM
Mon, Sep 26
50 °FCool.5 mph86%30.17 "Hg14 mi
12:00 AM51 °FCool.6 mph85%30.17 "Hg16 mi
11:00 PM
Sun, Sep 25
51 °FCool.3 mph85%30.16 "Hg19 mi
10:00 PM51 °FCool.5 mph86%30.14 "Hg17 mi
9:00 PM52 °FCool.3 mph81%30.13 "Hg19 mi
8:00 PM53 °FCool.3 mph78%30.11 "Hg19 mi
7:00 PM55 °FCool.5 mph74%30.09 "Hg19 mi
6:00 PM58 °FCool.7 mph64%30.06 "Hg16 mi
5:00 PM59 °FCool.6 mph61%30.04 "Hg19 mi
4:00 PM61 °FCool.10 mph61%30.02 "Hg31 mi
3:00 PM61 °FCool.8 mph70%30.00 "Hg14 mi
2:00 PM58 °FLots of rain. Cloudy.7 mph81%29.98 "Hg9 mi
1:00 PM60 °FCool.9 mph74%29.96 "Hg12 mi
12:00 PM59 °FCool.8 mph76%29.94 "Hg10 mi
11:00 AM57 °FCool.7 mph83%29.94 "Hg9 mi
10:00 AM56 °FCool.8 mph93%29.90 "Hg7 mi
9:00 AM55 °FCool.6 mph95%29.89 "Hg11 mi
8:00 AM55 °FCool.3 mph96%29.87 "Hg11 mi
7:00 AM54 °FCool.2 mph96%29.84 "Hg13 mi
6:00 AM55 °FRain. Overcast.2 mph94%29.80 "Hg6 mi
5:00 AM60 °FLight rain. Overcast.7 mph96%29.78 "Hg1 mi
4:00 AM62 °FCool.8 mph86%29.78 "Hg9 mi
3:00 AM62 °FCool.9 mph82%29.78 "Hg13 mi
Weather by CustomWeather, © 2016

See weather overviewHow to use our weather pages